Location: Balmoral
(33.0667°S, 151.5833°E)
Time: 00:44:20
(UTC+00:00)

Cosmos 1727 Rocket - Pass Details

Date: 18 September 2020
Orbit: 960 x 997 km, 82.9° (Epoch: 21 October)

Event Time Altitude Azimuth Distance (km) Brightness Sun altitude
Rises 17:05:42 0° 182° (S) 3,716 7.3 -33.9°
Reaches altitude 10° 17:08:16 10° 178° (S) 2,767 6.6 -33.4°
Maximum altitude 17:14:34 62° 97° (E) 1,111 4.4 -32.2°
Drops below altitude 10° 17:20:50 10° 17° (NNE) 2,756 6.3 -31.0°
Sets 17:23:23 0° 14° (NNE) 3,700 7.0 -30.5°
